Location: Newark
(41.8922°N, 9.0050°E)
Time: 13:39:20
(UTC+00:00)

Envisat - Pass Details

Date: 29 January 2020
Orbit: 764 x 766 km, 98.1° (Epoch: 24 February)

Event Time Altitude Azimuth Distance (km) Brightness Sun altitude
Rises 05:23:42 0° 22° (NNE) 3,240 6.4 -14.4°
Reaches altitude 10° 05:26:13 10° 32° (NNE) 2,309 5.7 -13.9°
Maximum altitude 05:30:49 34° 96° (E) 1,251 4.9 -13.1°
Drops below altitude 10° 05:35:23 10° 161° (SSE) 2,293 5.9 -12.2°
Sets 05:37:52 0° 170° (S) 3,214 6.6 -11.8°
